Вернуться в каталог

FENGYUN 1C DEB

АктивенSSO
NORAD 30671·DEBRIS·🇨🇳 China

Запущен May 10, 1999 с Taiyuan Satellite Launch Center

Loading…

Ближайшие Пролёты (ближайшие 24 часа)

TLE

СвежийSource: Space-Track

Эпоха: Sep 14, 2026, 11:01 UTC

1 30671U 99025AQD 26257.45908509  .00000856  00000-0  61248-3 0  9997
2 30671  99.2323 328.0942 0124633   2.2353  10.2973 13.96345838990425

Отслеживайте FENGYUN 1C DEB в реальном времени с AllMySat

Download on the App Store